Theta_e
347 352 360 359 360 358 358 357 357 356 356 356 356 355 355 354 354 354 354 355 356 354 353 353 353 352 352 351 351 351 351 350 350 350 351 354 355 346 348 351 354 351 360
349 350 360 360 360 358 357 357 357 356 355 355 354 354 354 354 353 352 352 352 353 352 353 353 353 353 353 353 353 353 353 352 351 351 351 351 355 353 352 352 353 352 354
349 349 353 361 360 360 358 356 355 354 354 354 354 352 350 350 351 352 353 354 355 354 355 355 355 355 354 353 352 353 353 354 354 353 352 346 340 358 355 354 353 354 349
351 353 353 361 359 357 355 354 355 355 353 351 350 351 351 352 353 354 354 354 355 354 354 352 352 352 352 352 353 353 354 354 354 354 349 341 338 360 357 356 353 352 352
354 356 355 360 358 354 356 355 354 353 353 354 354 355 356 355 356 356 355 354 354 352 353 354 353 351 352 353 352 353 352 352 353 353 347 345 347 357 360 358 357 357 358
349 354 357 358 358 355 354 354 355 356 355 354 353 352 352 351 350 350 349 348 349 349 349 348 348 346 345 349 352 352 352 353 354 346 343 346 345 355 355 355 351 353 357
347 350 350 358 357 355 355 354 353 351 350 349 349 348 348 346 346 345 345 344 343 343 344 344 343 343 343 342 344 345 345 346 342 341 345 346 347 354 356 354 354 354 357
342 346 351 355 356 356 353 350 348 346 344 343 343 343 344 342 342 341 340 340 340 339 340 340 340 340 340 340 340 341 343 344 340 338 339 349 352 352 355 355 356 357 358
345 346 346 350 352 352 349 347 343 340 338 336 336 338 338 340 339 339 334 332 333 333 334 335 335 336 337 338 340 342 341 342 337 337 340 349 351 352 353 353 355 356 358
342 342 345 347 347 347 342 343 341 339 336 336 335 330 333 338 339 336 338 330 329 331 331 332 333 334 335 336 340 342 342 343 335 335 339 349 351 353 351 351 352 354 356
339 342 344 344 347 345 341 340 340 339 338 337 337 342 341 334 332 330 329 327 328 331 333 334 334 339 340 340 343 345 343 336 333 333 339 355 356 353 351 349 348 349 356
337 341 346 350 347 345 343 341 344 341 338 337 335 339 332 337 333 332 335 338 334 337 339 338 341 341 335 326 325 333 331 325 323 323 333 352 350 349 349 350 349 350 353
344 347 349 353 351 346 345 346 345 342 341 335 334 334 335 335 333 329 329 329 330 333 326 328 329 326 328 326 325 325 325 323 323 323 337 344 342 338 337 343 348 350 350
343 349 351 352 353 355 348 349 345 340 341 333 332 333 331 330 331 334 330 331 330 329 328 327 326 329 327 328 326 325 326 326 324 323 329 342 340 337 337 338 342 345 347
342 350 352 356 355 354 353 349 346 340 335 335 331 331 331 331 331 334 333 331 330 328 326 327 326 327 327 327 326 326 326 327 328 330 331 343 342 340 340 339 338 344 344
343 350 351 351 353 350 350 348 343 341 338 334 332 331 331 331 333 330 330 328 327 328 327 328 325 327 326 325 324 326 326 328 330 331 332 334 339 338 340 339 340 341 340
346 350 351 347 345 346 348 347 342 339 333 333 332 331 331 333 331 332 328 324 325 327 329 328 328 326 325 323 325 325 326 328 329 329 330 331 332 336 337 339 340 340 340
349 345 345 345 344 345 343 342 338 337 335 332 332 329 330 331 330 330 324 324 323 328 326 325 326 322 323 323 322 324 325 325 328 328 329 329 328 328 329 331 333 335 334
345 344 343 343 341 338 337 341 335 337 336 333 330 328 330 329 328 331 324 324 327 323 322 323 323 324 322 322 321 321 324 324 324 326 325 325 326 326 325 328 329 329 330
345 343 341 338 340 340 335 337 333 333 333 329 329 328 329 329 327 328 323 325 322 320 320 321 323 322 322 320 319 320 321 323 323 323 323 324 322 323 322 321 322 322 325
342 340 338 338 339 337 331 328 328 328 330 326 327 329 328 326 327 326 322 322 324 319 320 319 318 317 319 319 317 317 320 323 324 322 321 320 319 319 319 321 320 320 320
336 337 337 336 337 337 334 339 335 332 329 326 326 327 326 325 324 321 323 321 322 319 319 319 318 314 317 318 312 311 310 315 317 318 320 319 319 318 316 317 317 318 319
335 336 335 336 335 335 337 331 330 328 327 325 324 323 323 323 322 324 323 322 323 318 318 318 316 317 310 314 316 309 304 302 304 317 319 317 316 316 317 317 318 317 317
336 335 336 335 334 335 334 330 327 321 321 325 323 322 322 323 321 322 323 322 323 318 318 316 316 315 312 308 309 312 311 308 300 300 312 314 316 315 314 312 310 313 314
336 335 336 334 332 331 332 331 328 334 326 327 322 324 323 323 321 319 322 322 322 319 320 318 317 315 312 310 307 307 307 307 307 303 299 302 306 308 309 309 307 308 310
335 334 334 332 330 330 329 333 332 331 327 322 320 319 318 318 320 321 320 322 321 320 319 318 319 316 315 312 311 311 307 304 303 303 301 302 302 306 306 308 307 308 309
Wind_Speed
15 16 16 14 13 13 13 12 12 11 10 9 10 10 10 10 10 10 9 9 8 8 8 7 7 7 7 8 8 8 8 9 10 11 11 11 8 4 2 5 8 10 8
18 16 15 13 13 12 12 11 11 10 9 9 9 9 8 8 8 8 8 8 8 8 8 8 7 7 7 8 8 8 8 8 9 10 12 12 11 7 5 4 5 6 6
18 15 14 13 12 12 13 13 10 10 9 8 8 8 8 9 9 9 9 8 9 9 9 9 9 8 9 8 8 8 10 10 11 11 14 10 11 15 11 8 5 3 3
17 13 13 13 14 14 13 11 10 10 9 8 8 8 8 7 7 7 7 8 9 10 10 10 10 10 10 10 10 10 9 10 11 14 10 13 12 17 10 6 7 3 2
18 16 13 15 14 13 13 12 10 9 8 8 8 9 11 11 11 12 12 13 13 11 12 11 11 10 10 9 9 9 11 11 12 13 12 13 3 15 13 9 7 6 5
18 17 14 15 14 14 14 9 10 11 13 14 14 14 10 12 11 12 12 12 12 11 11 11 11 11 11 11 10 10 11 12 13 11 11 11 4 15 15 11 6 4 2
19 16 14 15 16 14 15 14 14 14 12 12 11 11 10 10 11 11 11 11 11 11 10 10 10 11 10 10 10 10 10 12 10 11 13 9 7 16 13 11 7 5 4
19 17 15 16 16 15 16 14 13 12 12 10 9 8 7 8 8 9 9 9 9 10 10 10 11 11 11 12 11 12 12 12 11 11 13 6 13 4 9 12 7 4 7
20 17 14 14 15 16 15 14 13 12 10 9 6 4 3 5 7 7 8 8 8 8 8 9 10 11 12 13 14 14 14 15 10 9 14 5 10 14 4 7 7 3 6
18 17 17 14 14 12 11 13 13 11 9 7 5 2 5 5 7 6 4 5 5 6 7 7 11 12 13 14 16 17 16 17 11 12 7 5 9 7 5 6 7 5 3
18 18 19 16 14 13 12 10 11 10 8 6 4 8 0 3 6 9 5 2 3 8 8 9 10 15 12 16 14 13 15 7 12 6 3 11 7 6 6 6 4 3 1
17 14 19 15 13 12 10 12 9 9 6 5 5 5 6 3 5 7 4 4 7 5 11 9 11 12 10 8 7 10 3 8 8 9 4 10 9 6 3 1 3 2 3
22 14 17 12 9 7 8 7 3 4 3 5 7 7 5 4 4 4 4 4 4 10 6 8 6 6 7 5 5 5 5 6 5 5 7 8 6 5 4 5 6 3 5
14 18 16 12 8 6 4 1 5 5 3 4 7 6 5 4 4 4 3 4 4 4 6 6 5 6 7 7 7 10 9 5 5 5 4 3 2 9 11 9 8 7 6
14 14 12 10 7 6 4 3 4 5 4 5 7 6 5 4 4 4 3 4 4 4 5 5 4 5 5 6 9 10 7 9 10 7 6 23 19 21 17 12 12 9 7
12 13 10 11 8 7 4 5 4 4 4 5 6 4 6 5 4 5 4 5 5 3 4 4 5 4 4 7 8 9 12 10 12 11 9 10 19 22 23 18 13 6 4
13 11 11 12 10 6 4 3 4 3 4 5 6 6 6 4 5 5 5 5 5 5 5 5 5 4 5 7 6 4 4 7 9 10 10 10 12 28 30 29 26 29 20
13 13 10 10 9 5 4 3 4 3 2 5 4 6 5 5 5 4 5 4 5 4 5 4 4 6 4 2 3 3 3 6 5 9 8 7 7 8 17 26 27 26 26
14 14 9 10 10 7 4 5 6 3 2 4 5 6 3 4 5 4 4 3 5 6 6 6 5 4 5 6 3 4 4 4 4 6 9 8 8 8 7 19 22 23 25
13 12 9 8 10 7 3 5 5 3 2 6 6 5 5 3 4 6 4 3 5 6 6 6 7 4 4 5 7 3 3 3 3 4 5 5 5 8 9 9 7 10 20
12 11 10 11 9 7 5 5 5 5 4 6 6 4 5 4 5 6 4 5 3 5 5 6 5 7 2 4 4 4 3 5 4 5 6 5 6 9 8 7 5 4 7
13 12 12 11 10 8 6 2 3 4 4 7 6 4 4 4 6 5 5 4 5 4 6 5 7 4 4 4 3 4 2 0 4 5 4 4 5 4 5 6 6 5 5
16 14 13 13 12 10 6 5 5 5 4 4 6 5 4 4 5 5 4 5 4 7 4 5 8 7 5 5 6 3 4 4 7 2 5 4 4 3 3 4 5 5 4
16 14 14 14 12 8 9 7 8 7 6 4 6 6 4 4 5 5 5 4 5 5 5 5 6 6 6 5 5 3 2 2 2 5 3 2 3 5 4 5 5 4 5
18 16 14 14 12 9 8 8 6 2 6 4 7 6 6 3 3 5 4 3 3 4 4 6 5 6 4 5 4 4 5 5 5 4 5 5 5 3 4 4 3 3 4
17 15 14 13 11 11 9 9 7 8 6 7 7 6 6 5 3 3 3 5 3 3 4 4 3 6 5 5 6 5 4 4 5 5 6 6 5 3 3 3 1 3 3
Wind_Direction
104 111 108 109 103 99 95 91 88 83 77 73 67 65 63 56 53 52 50 47 47 43 41 38 31 27 16 13 7 4 359 351 346 339 332 325 323 326 56 13 355 70 64
109 109 109 110 106 102 100 93 88 86 81 78 76 71 65 57 53 49 45 37 30 26 22 17 10 7 2 354 350 344 340 334 328 321 311 296 263 235 219 134 37 44 45
107 115 120 121 116 110 99 92 91 90 84 76 71 62 56 49 44 40 34 30 25 20 15 8 2 359 352 346 340 334 330 324 317 311 302 279 262 195 207 165 118 54 45
123 115 118 112 105 101 98 99 97 86 81 79 75 71 66 60 54 50 42 32 29 22 17 15 8 359 350 344 338 330 319 311 308 306 292 278 273 169 185 176 146 149 184
101 103 115 109 107 106 101 90 87 89 90 90 86 72 59 50 43 42 44 39 30 24 24 22 19 8 356 342 334 331 324 316 306 296 276 277 105 158 171 166 175 188 209
113 105 111 111 105 101 96 105 110 92 75 69 63 60 61 58 53 49 44 38 33 26 20 13 9 5 358 359 352 339 328 318 311 282 272 268 260 160 160 159 158 143 190
110 118 119 116 112 111 102 91 83 74 80 78 77 72 68 65 61 53 45 36 27 17 11 7 3 355 349 343 335 328 322 316 302 292 288 284 125 162 154 144 154 171 214
124 117 125 115 111 106 99 98 99 93 84 79 78 79 83 84 79 69 52 35 24 14 3 356 349 340 332 324 314 309 306 303 305 299 298 77 109 325 135 137 137 190 224
128 125 136 126 113 108 112 111 104 98 96 91 93 97 110 123 108 108 76 41 16 0 345 343 331 320 313 305 300 291 289 290 289 283 283 120 129 150 143 83 71 21 253
131 139 137 134 138 132 128 125 123 121 122 122 117 190 224 201 151 145 65 49 4 324 320 316 312 304 310 302 289 277 280 285 272 265 273 127 171 124 99 91 62 33 284
148 148 140 148 150 135 142 144 146 144 141 150 196 0 50 47 356 341 106 213 277 291 292 291 289 293 301 296 300 269 268 275 280 295 49 143 128 134 153 107 97 61 160
151 121 127 137 148 149 136 162 168 135 101 76 28 16 12 25 11 341 15 285 262 259 310 258 290 273 347 343 337 340 277 312 329 323 5 75 65 54 34 230 148 161 226
109 117 129 123 128 156 156 175 117 85 115 102 60 359 30 5 1 355 9 345 357 17 15 356 356 17 334 325 301 302 323 330 326 327 66 72 65 47 28 347 305 236 228
128 125 134 125 133 127 144 130 126 106 102 76 98 25 16 12 356 354 15 350 10 10 356 341 15 338 311 294 355 6 355 351 336 330 343 128 14 9 1 344 329 267 247
123 114 115 116 117 90 90 87 76 117 68 84 66 50 29 355 350 328 14 10 21 25 344 336 350 315 345 353 27 11 6 5 7 358 351 32 26 13 0 351 327 292 242
133 125 142 127 120 128 113 107 105 99 162 100 88 55 37 359 342 329 38 14 10 14 317 330 323 2 344 38 28 22 19 18 29 12 2 25 25 22 20 17 2 351 286
144 145 134 90 86 113 111 158 108 170 121 93 114 87 57 19 341 326 43 23 346 323 342 12 336 358 3 39 6 22 34 32 37 28 26 49 49 50 49 49 51 56 39
114 96 110 129 142 128 129 183 93 45 100 99 82 86 42 18 355 37 23 20 311 325 14 12 6 352 8 95 72 14 20 55 48 51 51 64 58 49 53 56 53 57 59
117 124 137 130 147 131 188 87 83 236 113 90 77 72 64 48 9 357 48 342 334 12 30 0 360 354 341 356 4 49 21 28 43 70 61 60 75 79 66 65 64 63 62
132 132 153 150 160 150 137 144 147 175 132 83 70 82 18 69 37 349 88 355 41 30 23 356 345 321 35 2 335 341 100 76 37 62 67 48 70 91 98 88 78 79 77
135 138 172 158 150 155 164 177 168 155 107 97 100 81 75 21 57 5 55 17 25 61 21 0 340 346 36 12 337 330 213 167 124 71 73 58 21 42 58 127 119 91 111
143 167 173 166 164 193 196 141 133 116 84 96 89 90 71 81 38 67 6 61 1 94 42 10 352 346 346 63 349 311 356 158 30 95 96 113 84 100 62 52 51 81 94
167 174 175 168 179 195 125 107 83 75 96 127 142 148 93 84 89 91 62 22 33 41 27 37 13 358 342 5 24 50 352 17 325 86 149 117 123 78 87 145 116 98 42
168 168 174 175 183 169 147 152 155 168 173 129 107 100 96 85 103 98 67 49 19 78 27 32 23 359 19 358 356 12 355 114 8 339 9 149 163 165 109 60 47 26 67
167 176 173 168 179 143 175 162 170 190 127 128 100 108 103 116 125 112 105 111 34 55 84 25 56 18 20 357 1 358 8 12 10 9 334 347 12 59 67 84 80 79 66
168 161 169 160 171 166 171 146 189 127 147 125 138 170 169 154 160 56 104 97 53 78 30 83 74 69 358 23 358 351 33 26 1 6 352 355 343 307 118 119 207 149 113